Showing default

CENTAURI-6, 59451

Orbit data source: Space-Track

CENTAURI-6, 59451 is a payload satellite owned by Fleet Space (AU) in LEO that was launched on Sun, 07 Apr 2024 UTC via an FALCON 9 launch vehicle from the Air Force Eastern Test Range (AFETR). Payload-class satellites include a variety of spacecraft equipped with specific instruments for various scientific and technological missions. These include communications satellites like Starlink; space stations such as the ISS; scientific satellites like the Hubble; Earth observation satellites from companies like Planet Labs, Umbra, and HawkEye 360; GPS; miniature CubeSats for education and research; and military/defense satellites.

Loading next visibility...
Identifier
59451, 2024-066K
Orbit
LEO
Country
Flag of AUAU / AUS
Related business
Manufacturer
Terran Orbital
Mission
Operational Commercial Communications
Bus & Motor
CUBESAT 12U, Unknown motor
Mass
~20 kg wet, ~20 kg dry
Launch date (UTC)
2024-04-07 (2 years ago)
Launch vehicle
FALCON 9
Launch site
Air Force Eastern Test Range (AFETR)
Object type
Payload
Rocket body
Debris
Shape & HBR
Box + 2 Pan, 1.0 m
Radar Cross Section
0.183 m², Medium (>0.1 m² and < 1m²)

Expand to show TLE details & history
Last TLE update: 20 hours ago

TLE from 20 hours ago
0 CENTAURI-6
1 59451U 24066K   25293.74038872  .00009720  00000-0  73790-3 0  9999
2 59451  45.6058  62.3442 0003886 245.4169 114.6309 15.02497420 84067
Epoch: 2025-10-20T17:46Z
TLE epoch observation values (Epoch: 2025-10-20T17:46:09.585Z)
Latitude
-0°
Longitude
126.3659°
Altitude
560.388 km
Speed
7.582 km/s
True Right ascension
04h 09m 22s
True Declination
0° 00' 00"
Sunlit
Object was in full shadow at epoch
Visualization orbit readout
Latitude
Unknown
Longitude
Unknown
Altitude
Unknown
Speed
Unknown
Apparent Right ascension
Unknown
Apparent Declination
Unknown
Sunlit
N/A
Visualization observer readout
Local Sidereal Time
09:09:51
Azimuth
Unknown
Elevation
Unknown
Doppler factor
Unknown
Orbital elements
Apogee altitude
563.386 km
Perigee altitude
557.993 km
Semi-major axis
6,938.826 km
Eccentricity
0.00039
Inclination
45.6058°
RAAN
62.3442°
Arg. of periapsis
245.4169°
True anomaly
114.67137°
Mean anomaly
114.6309°
Eccentric anomaly
114.65114°
Mean motion
3.75504 °/min
Orbital period
95.87 mins
BSTAR
0.0007379
Loading maneuver chart data...
Computing Atmospheric mass density...
Loading historical data...
Loading historical data...
Loading historical data...
Loading historical data...
Loading historical data...
Loading historical data...
Loading historical data...

Documentation

Showing up to 5 results
|